Hourly Data Report for September 18, 2017

All times are specified in Local Standard Time (LST). Add 1 hour to adjust for Daylight Saving Time where and when it is observed.

KAMLOOPS A
BRITISH COLUMBIA

50°42'09.000" N
120°26'55.000" W
345.30 m
1163781
71887
YKA

Download Data

Hourly Data (September 2017)
Hourly Data Report for September 18, 2017
Temp Definition
°C
Dew Point Temp Definition
°C
Rel Hum Definition
%
Wind Dir Definition
10's deg

Wind Spd Definition
km/h
Visibility Definition
km
Stn Press Definition
kPa
Hmdx Definition


Wind Chill Definition


Weather Definition


TIME
00:00 Legend Double Dagger 14.3 2.3 44 21 15 24.1 96.22     LegendNANA
01:00 Legend Double Dagger 11.9 2.7 53 5 15 32.2 96.29     Mainly Clear
02:00 Legend Double Dagger 12.2 1.9 49 14 17 32.2 96.32     LegendNANA
03:00 Legend Double Dagger 10.2 0.6 51 26 9 32.2 96.35     LegendNANA
04:00 Legend Double Dagger 9.4 0.6 54 6 5 32.2 96.39     Mainly Clear
05:00 Legend Double Dagger 8.4 0.5 57 36 2 64.4 96.41     LegendNANA
06:00 Legend Double Dagger 7.8 1.1 63 36 3 64.4 96.43     LegendNANA
07:00 Legend Double Dagger 8.6 1.5 61 36 3 64.4 96.46     Mainly Clear
08:00 Legend Double Dagger 10.9 2.0 54 12 4 64.4 96.46     LegendNANA
09:00 Legend Double Dagger 12.9 1.9 47 14 7 64.4 96.45     LegendNANA
10:00 Legend Double Dagger 14.7 1.1 40 14 5 64.4 96.43     Mainly Clear
11:00 Legend Double Dagger 15.9 0.8 36 35 6 64.4 96.37     LegendNANA
12:00 Legend Double Dagger 15.3 2.1 41 26 8 64.4 96.32     LegendNANA
13:00 Legend Double Dagger 16.1 -0.3 32 32 7 64.4 96.27     Mostly Cloudy
14:00 Legend Double Dagger 14.0 4.1 51 8 20 64.4 96.31     Thunderstorms,Rain Showers
15:00 Legend Double Dagger 15.3 3.3 44 13 8 64.4 96.26     LegendNANA
16:00 Legend Double Dagger 15.4 1.2 38 14 7 64.4 96.22     Mostly Cloudy
17:00 Legend Double Dagger 14.1 4.9 54 10 7 64.4 96.21     LegendNANA
18:00 Legend Double Dagger 14.4 2.6 45 31 25 64.4 96.24     Rain Showers
19:00 Legend Double Dagger 12.9 2.1 48 20 13 64.4 96.28     Mostly Cloudy
20:00 Legend Double Dagger 11.9 1.6 49 24 11 64.4 96.33     LegendNANA
21:00 Legend Double Dagger 9.5 1.3 56 22 4 64.4 96.36     LegendNANA
22:00 Legend Double Dagger 7.2 0.4 62 30 4 64.4 96.39     Mainly Clear
23:00 Legend Double Dagger 4.9 0.3 72 31 8 64.4 96.42     LegendNANA

Notes on Data Quality.

Legend

  • E = Estimated
  • M = Missing
  • NA = Not Available
  • ‡ = Partner data that is not subject to review by the National Climate Archives
Date modified: